Mexia Limestone County Airpor, TX

6:57 AM CST on November 15, 2019 (GMT -0600)
Mexia-Limestone County

Weather History for KLXY - September, 2019

Change the Weather History Date:

Sunday, September 15, 2019

  Actual Average (WUND) Record (WUND)
Temperature  
Mean Temperature 83 °F -  
Max Temperature 97 °F - - (-1)
Min Temperature 70 °F - - (-1)
Cooling Degree Days 18    
Growing Degree Days 33 (Base 50)    
Moisture  
Dew Point 64 °F    
Average Humidity 55    
Maximum Humidity 82    
Minimum Humidity 31    
Precipitation  
Precipitation 0.00 in - - ()
Sea Level Pressure  
Sea Level Pressure 30.05 in    
Wind  
Wind Speed 3 mph (SE)    
Max Wind Speed 10 mph    
Max Gust Speed 9 mph    
Visibility 10 miles    
Events      
Averages and records for this station are not official NWS values.
T = Trace of Precipitation, MM = Missing Value Source: NWS Daily Summary

Daily Weather History Graph

Daily Weather History Graph

Search for Another Location

Airport or City:

Astronomy

Sep. 15, 2019 Rise Set
Actual Time 7:09 AM CDT 7:32 PM CDT
Civil Twilight 6:45 AM CDT 7:56 PM CDT
Nautical Twilight 6:16 AM CDT 8:24 PM CDT
Astronomical Twilight 5:48 AM CDT 8:53 PM CDT
Moon 8:43 PM CDT 8:19 AM CDT
Length of Visible Light 13h 10m
Length of Day
12h 22m
Full, 98% of the Moon is Illuminated
Sep 15
Full
Sep 21
Last Quarter
Sep 28
New
Oct 5
First Quarter
Oct 13
Full

Hourly Weather History & Observations

Time (CDT) Temp. Heat Index Dew Point Humidity Pressure Visibility Wind Dir Wind Speed Gust Speed Precip Events Conditions
12:15 AM 78.3 °F - 63.5 °F 60% 30.08 in 10.0 mi South 3.5 mph - N/A   Scattered Clouds
12:35 AM 76.6 °F - 63.1 °F 63% 30.08 in 10.0 mi South 6.9 mph - N/A   Scattered Clouds
12:55 AM 76.3 °F - 63.5 °F 64% 30.08 in 10.0 mi SSW 4.6 mph - N/A   Scattered Clouds
1:15 AM 76.3 °F - 63.5 °F 64% 30.08 in 10.0 mi SSW 6.9 mph - N/A   Clear
1:35 AM 75.4 °F - 63.3 °F 66% 30.08 in 10.0 mi South 4.6 mph - N/A   Clear
1:55 AM 74.8 °F - 63.7 °F 68% 30.08 in 10.0 mi Calm Calm - N/A   Clear
2:15 AM 74.5 °F - 63.1 °F 68% 30.08 in 10.0 mi South 4.6 mph - N/A   Scattered Clouds
2:35 AM 74.1 °F - 64.9 °F 73% 30.08 in 10.0 mi South 4.6 mph - N/A   Scattered Clouds
2:55 AM 73.8 °F - 64.6 °F 73% 30.08 in 10.0 mi South 3.5 mph - N/A   Clear
3:15 AM 73.0 °F - 64.4 °F 74% 30.07 in 10.0 mi Calm Calm - N/A   Clear
3:35 AM 74.1 °F - 63.5 °F 69% 30.07 in 10.0 mi Calm Calm - N/A   Clear
3:55 AM 73.2 °F - 63.9 °F 72% 30.07 in 10.0 mi Calm Calm - N/A   Clear
4:35 AM 74.3 °F - 63.7 °F 69% 30.07 in 10.0 mi Calm Calm - N/A   Clear
4:55 AM 72.1 °F - 64.4 °F 77% 30.07 in 10.0 mi Calm Calm - N/A   Clear
5:15 AM 72.7 °F - 63.9 °F 74% 30.07 in 10.0 mi Calm Calm - N/A   Clear
5:35 AM 71.8 °F - 64.6 °F 78% 30.07 in 10.0 mi Calm Calm - N/A   Clear
5:55 AM 71.1 °F - 64.4 °F 79% 30.08 in 10.0 mi Calm Calm - N/A   Clear
6:15 AM 70.7 °F - 64.8 °F 81% 30.08 in 10.0 mi Calm Calm - N/A   Clear
6:35 AM 71.1 °F - 64.4 °F 79% 30.08 in 10.0 mi Calm Calm - N/A   Clear
6:55 AM 70.2 °F - 64.6 °F 82% 30.08 in 10.0 mi Calm Calm - N/A   Clear
7:15 AM 70.3 °F - 64.4 °F 81% 30.08 in 10.0 mi Calm Calm - N/A   Clear
7:35 AM 70.5 °F - 64.4 °F 81% 30.08 in 10.0 mi Calm Calm - N/A   Clear
7:55 AM 70.7 °F - 64.8 °F 81% 30.08 in 10.0 mi Calm Calm - N/A   Clear
8:15 AM 73.2 °F - 65.7 °F 77% 30.09 in 10.0 mi Calm Calm - N/A   Clear
8:35 AM 75.2 °F - 65.8 °F 73% 30.09 in 10.0 mi Calm Calm - N/A   Clear
8:55 AM 77.4 °F - 66.2 °F 68% 30.09 in 10.0 mi Calm Calm - N/A   Clear
9:15 AM 79.0 °F - 66.4 °F 65% 30.09 in 10.0 mi Calm Calm - N/A   Clear
9:35 AM 81.3 °F 83.5 °F 66.4 °F 60% 30.10 in 10.0 mi SSW 3.5 mph - N/A   Clear
9:55 AM 84.0 °F 87.0 °F 67.8 °F 58% 30.10 in 10.0 mi NW 3.5 mph - N/A   Clear
10:15 AM 85.1 °F 87.7 °F 66.9 °F 54% 30.10 in 10.0 mi NNW 3.5 mph - N/A   Clear
10:35 AM 86.7 °F 88.4 °F 64.8 °F 48% 30.10 in 10.0 mi Calm Calm - N/A   Clear
10:55 AM 87.3 °F 89.2 °F 65.3 °F 48% 30.10 in 10.0 mi Calm Calm - N/A   Clear
11:15 AM 89.4 °F 91.5 °F 65.5 °F 45% 30.10 in 10.0 mi ENE 3.5 mph - N/A   Clear
11:35 AM 90.0 °F 91.7 °F 64.9 °F 43% 30.09 in 10.0 mi East 5.8 mph - N/A   Clear
11:55 AM 91.2 °F 93.3 °F 64.9 °F 42% 30.09 in 10.0 mi NE 3.5 mph - N/A   Clear
12:15 PM 91.8 °F 93.8 °F 64.9 °F 41% 30.08 in 10.0 mi SSE 5.8 mph - N/A   Clear
12:35 PM 91.2 °F 92.9 °F 64.2 °F 41% 30.07 in 10.0 mi Calm Calm - N/A   Scattered Clouds
12:55 PM 93.7 °F 94.9 °F 62.8 °F 36% 30.07 in 10.0 mi East 6.9 mph - N/A   Scattered Clouds
1:15 PM 93.4 °F 94.3 °F 62.4 °F 36% 30.06 in 10.0 mi East 6.9 mph - N/A   Clear
1:35 PM 94.8 °F 95.8 °F 62.8 °F 34% 30.05 in 10.0 mi ESE 4.6 mph - N/A   Clear
1:55 PM 93.4 °F 94.3 °F 62.8 °F 36% 30.04 in 10.0 mi East 6.9 mph - N/A   Clear
2:15 PM 93.2 °F 94.1 °F 62.6 °F 36% 30.04 in 10.0 mi NNW 3.5 mph - N/A   Clear
2:35 PM 95.4 °F 95.7 °F 61.2 °F 32% 30.03 in 10.0 mi SSE 5.8 mph 9.2 mph N/A   Clear
2:55 PM 95.2 °F 96.3 °F 62.4 °F 34% 30.02 in 10.0 mi SE 5.8 mph - N/A   Scattered Clouds
3:15 PM 95.9 °F 97.0 °F 62.2 °F 33% 30.01 in 10.0 mi SE 4.6 mph - N/A   Scattered Clouds
3:35 PM 96.1 °F 97.3 °F 62.6 °F 33% 30.00 in 10.0 mi SE 9.2 mph - N/A   Scattered Clouds
3:55 PM 96.8 °F 97.5 °F 61.5 °F 31% 29.99 in 10.0 mi East 6.9 mph - N/A   Scattered Clouds
4:15 PM 95.2 °F 96.3 °F 62.4 °F 34% 29.99 in 10.0 mi East 8.1 mph - N/A   Mostly Cloudy
4:35 PM 95.9 °F 97.5 °F 63.1 °F 34% 29.98 in 10.0 mi East 6.9 mph - N/A   Scattered Clouds
4:55 PM 94.8 °F 95.8 °F 62.8 °F 34% 29.98 in 10.0 mi East 10.4 mph - N/A   Scattered Clouds
5:15 PM 95.0 °F 96.0 °F 62.8 °F 34% 29.98 in 10.0 mi SSE 9.2 mph - N/A   Scattered Clouds
5:35 PM 94.3 °F 94.9 °F 61.9 °F 34% 29.98 in 10.0 mi East 5.8 mph - N/A   Mostly Cloudy
5:55 PM 94.1 °F 95.0 °F 62.2 °F 35% 29.99 in 10.0 mi ESE 8.1 mph - N/A   Scattered Clouds
6:15 PM 92.8 °F 93.5 °F 62.1 °F 36% 29.98 in 10.0 mi SSE 6.9 mph - N/A   Clear
6:35 PM 92.3 °F 93.1 °F 62.4 °F 37% 29.98 in 10.0 mi ESE 8.1 mph - N/A   Clear
6:55 PM 91.4 °F 92.4 °F 63.1 °F 39% 29.98 in 10.0 mi ESE 5.8 mph - N/A   Clear
7:15 PM 90.1 °F 91.2 °F 63.5 °F 41% 29.99 in 10.0 mi ESE 5.8 mph - N/A   Clear
7:35 PM 87.8 °F 89.1 °F 64.0 °F 45% 29.99 in 10.0 mi Calm Calm - N/A   Clear
7:55 PM 86.5 °F 87.8 °F 64.4 °F 47% 29.98 in 10.0 mi Calm Calm - N/A   Clear
8:15 PM 85.3 °F 86.6 °F 64.4 °F 49% 29.99 in 10.0 mi Calm Calm - N/A   Clear
8:35 PM 84.4 °F 85.9 °F 64.4 °F 51% 29.99 in 10.0 mi Calm Calm - N/A   Clear
8:55 PM 84.0 °F 85.6 °F 64.8 °F 52% 29.99 in 10.0 mi Calm Calm - N/A   Clear
9:15 PM 83.1 °F 84.6 °F 64.4 °F 53% 30.00 in 10.0 mi Calm Calm - N/A   Clear
9:35 PM 82.4 °F 84.1 °F 64.9 °F 55% 30.00 in 10.0 mi Calm Calm - N/A   Clear
9:55 PM 81.5 °F 83.4 °F 65.3 °F 58% 30.01 in 10.0 mi Calm Calm - N/A   Clear
10:15 PM 80.8 °F 82.5 °F 64.9 °F 58% 30.02 in 10.0 mi Calm Calm - N/A   Clear
10:35 PM 80.6 °F 82.4 °F 64.9 °F 59% 30.02 in 10.0 mi Calm Calm - N/A   Clear
10:55 PM 80.6 °F 82.5 °F 65.5 °F 60% 30.02 in 10.0 mi SSE 4.6 mph - N/A   Clear
11:15 PM 79.9 °F - 65.3 °F 61% 30.02 in 10.0 mi Calm Calm - N/A   Clear
11:35 PM 79.2 °F - 65.7 °F 63% 30.02 in 10.0 mi SE 3.5 mph - N/A   Clear
11:55 PM 79.7 °F - 65.3 °F 61% 30.02 in 10.0 mi SSE 3.5 mph - N/A   Clear